Regional Weather Roundup
Issued by NWS

Current Version | Previous Version | Text Only | Print | Product List | Glossary On
Versions: 1 2 3 4 5 6 7 8 9 10 11 12 13 14 15 16 17 18 19 20 21 22 23 24 25 26 27 28 29 30 31 32 33 34 35 36 37 38 39 40 41 42 43 44 45 46 47 48 49 50
000
ASUS45 KTFX 310410
RWRMT
MONTANA REGIONAL WEATHER ROUNDUP
NATIONAL WEATHER SERVICE GREAT FALLS MT
1000 PM MDT SAT JUL 30 2016

NOTE: "FAIR" INDICATES FEW OR NO CLOUDS BELOW 12000 FEET WITH NO
SIGNIFICANT WEATHER AND/OR OBSTRUCTIONS TO VISIBILITY.

MTZ001>007-043-310500-
WEST OF THE DIVIDE

CITY           SKY/WX    TMP DP  RH WIND       PRES   REMARKS
KALISPELL      CLEAR     74  41  30 VRB6      29.71R
MISSOULA       CLEAR     76  37  24 W9        29.78R
BUTTE          CLEAR     77  38  24 N13       29.90R
MULLAN PASS    CLEAR     64  37  36 SW8       29.96S
DEER LODGE       N/A     75  39  27 NE6       29.87R
EUREKA           N/A     75  41  29 SW3       29.69R
HAMILTON         N/A     79  46  31 CALM      29.80R
LIBBY            N/A     75  43  31 CALM      29.70S
PLAINS           N/A     79  45  29 CALM      29.77R
RONAN            N/A     77  45  32 CALM      29.83R
$$

MTZ008-052>055-310500-
SOUTHWEST MONTANA

CITY           SKY/WX    TMP DP  RH WIND       PRES   REMARKS
BOZEMAN        CLEAR     77  46  33 SE6       29.79R
DILLON         CLEAR     76  41  28 S14       29.84R
W YELLOWSTONE  CLOUDY    64  43  45 CALM      30.03S
ENNIS          CLEAR     77  39  25 VRB7G15   29.92R
THREE FORKS      N/A     80  -6   3 CALM      29.79R
TWIN BRIDGES     N/A     81  44  26 CALM      29.84R
$$

MTZ009-010-012-014-046-048-049-054-310500-
EAST SLOPES AND CENTRAL MONTANA

CITY           SKY/WX    TMP DP  RH WIND       PRES   REMARKS
CUT BANK         N/A     71  40  32 W14       29.72R
GREAT FALLS    CLEAR     72  36  26 W12       29.71R
HELENA         CLEAR     82  39  21 W9        29.75R
CHOTEAU          N/A     77  34  20 W12       29.75R
CONRAD           N/A     77  45  32 W8        29.77R
$$

MTZ011-013-016-021-045-047-050-051-310500-
NORTH CENTRAL MONTANA

CITY           SKY/WX    TMP DP  RH WIND       PRES   REMARKS
HAVRE          CLEAR     77  60  55 MISG      29.62R
N BAR RANCH      N/A     72  46  40 VRB6      29.81R
CHINOOK          N/A     73  57  56 E9        29.64R
$$

MTZ017>020-022>027-061-062-310500-
NORTHEAST MONTANA

CITY           SKY/WX    TMP DP  RH WIND       PRES   REMARKS
GLASGOW        LGT RAIN  73  58  59 E15       29.69F
JORDAN           N/A     81  55  40 E8        29.68R
SIDNEY         CLEAR     75  56  51 E7        29.73S
WOLF POINT     LGT RAIN  78  55  44 NE10      29.77R
PLENTYWOOD       N/A     73  55  53 E8        29.77S
POPLAR           N/A     77  57  50 NE10      29.75R
SCOBEY           N/A     74  51  44 E15       29.74F
$$

MTZ028>42-056>058-310500-
SOUTHCENTRAL AND SOUTHEAST MONTANA

CITY           SKY/WX    TMP DP  RH WIND       PRES   REMARKS
BAKER          CLEAR     73  56  54 SE8       29.77S
BILLINGS       CLOUDY    82  47  29 SW13G21   29.74F
LIVINGSTON     CLEAR     81  41  24 S8        29.80R
MILES CITY     CLEAR     87  50  27 SE10      29.68R
EKALAKA          N/A     75  53  46 SE8       29.79S
FORSYTH          N/A     82  48  30 E7        29.67R
LAUREL           N/A     78  48  34 CALM      29.78R
ROUNDUP          N/A     81  37  20 CALM      29.67R
$$

REGIONAL REPORTS...DAKOTAS

CITY           SKY/WX    TMP DP  RH WIND       PRES   REMARKS
WILLISTON      CLOUDY    76  55  48 SE7       29.76S
MINOT          CLEAR     72  66  81 E7        29.80S
DICKINSON      CLEAR     71  59  65 SE9       29.77F
CROSBY           N/A     63  63 100 SE6       29.79S
BISMARCK       CLEAR     72  63  73 SE12      29.80S
GRAND FORKS    CLEAR     71  59  65 SE10      29.88S
FARGO          CLEAR     72  57  59 SE10      29.91S
BUFFALO SD       N/A     74  56  53 S6        29.72F
RAPID CITY     CLOUDY    64  60  87 E7        29.88R
$$

REGIONAL REPORTS...WYOMING/IDAHO/WASHINGTON

CITY           SKY/WX    TMP DP  RH WIND       PRES   REMARKS
GILLETTE       CLEAR     69  55  60 SE13      29.82S
SHERIDAN       CLOUDY    73  54  51 SW10      29.80R
BUFFALO WY     CLOUDY    76  48  37 N10       29.90R
CODY           CLEAR     75  46  35 CALM      29.91R
YELLOWSTONE LA   N/A     55  43  63 CALM      30.16S
IDAHO FALLS    CLOUDY    79  45  29 S13       29.89R
SALMON         CLEAR     79  32  18 W5        29.76R
BOISE          CLEAR     89  34  14 NW7       29.73R
SPOKANE        PTCLDY    81  31  16 SW13      29.71R
$$

REGIONAL REPORTS...ALBERTA

CITY           SKY/WX    TMP DP  RH WIND       PRES   REMARKS
EDMONTON       MOCLDY    55  54  94 NW5       29.78R
CALGARY        MOCLDY    55  52  88 NW10G17   29.82R
LETHBRIDGE     PTCLDY    63  54  72 N23       29.74R
MEDICINE HAT   CLOUDY    72  59  64 NW22G35   29.63R
WATERTON GATE    N/A     63  43  48 S1          N/A
CARDSTON         N/A     59  54  82 N14         N/A
MILK RIVER       N/A     66  48  52 NW9         N/A
$$

REGIONAL REPORTS...SASKATCHEWAN

CITY           SKY/WX    TMP DP  RH WIND       PRES   REMARKS
SWIFT CURRENT  CLEAR     64  59  82 S14       29.65F
REGINA         PTCLDY    70  57  64 SE12      29.72S
SASKATOON      MOCLDY    64  64 100 E8        29.69S
VAL MARIE        N/A     64  57  77 E9          N/A
ROCKGLEN         N/A     73  50  43 SE15        N/A
ASSINIBOIA       N/A     59  57  94 W13         N/A
$$



USA.gov is the U.S. government's official web portal to all federal, state and local government web resources and services.